ICEYE-X24

导读 | 豆包AI

ICEYE-X24是由美国发射于2022年5月25日的合成孔径雷达卫星,隶属于芬兰ICEYE公司的全球最大SAR卫星星座。卫星最高分辨率可达25厘米,支持凝视、聚束、条带、扫描多种成像模式,可应对自然灾害监测、海事监视、国防安全等多类任务,全天时全天候提供近实时高精度对地观测数据,为政商客户提供可靠决策支撑。

基本信息
目录编号:
52755
目录名称:
ICEYE-X24
国际标识:
2022-057Z
轨道中心:
EARTH
卫星名称:
ICEYE-X24
卫星全名:
--
卫星状态:
已陨落 最后检测时间 2024-12-17
发射日期:
2022-05-25 UTC
国别 :
美国 (US)
星等 :
--
轨道信息
数据来源 国际轨道数据
星历时间: 2024-12-14T17:54:53+0800
轨道信息已过期475天
半长轴: 6522.03km
偏心率: 0.0009788
轨道倾角: 97.539°
近地点辐角 317.057°
升交点赤经 128.414°
平近点角 42.997°
近地点: 137.511km
远地点: 150.279km
周期: 87.364分钟
每日圈数: 16.482712
详细信息
使用方式:
暂无